TimePST,TemperatureF,Dew PointF,Humidity,Sea Level PressureIn,VisibilityMPH,Wind Direction,Wind SpeedMPH,Gust SpeedMPH,PrecipitationIn,Events,Conditions,WindDirDegrees,DateUTC
12:53 AM,26.1,21.0,81,30.30,10.0,Calm,Calm,-,N/A,,Clear,0,2013-12-04 08:53:00
1:53 AM,26.1,21.9,84,30.30,10.0,WNW,4.6,-,N/A,,Clear,300,2013-12-04 09:53:00
2:53 AM,26.1,21.9,84,30.30,10.0,NNW,5.8,-,N/A,,Clear,330,2013-12-04 10:53:00
3:53 AM,26.1,21.0,81,30.30,10.0,NNW,5.8,-,N/A,,Clear,330,2013-12-04 11:53:00
4:53 AM,26.1,21.0,81,30.30,10.0,NNW,5.8,-,N/A,,Clear,340,2013-12-04 12:53:00
5:53 AM,26.1,21.0,81,30.31,10.0,North,5.8,-,N/A,,Clear,360,2013-12-04 13:53:00
6:53 AM,27.0,21.0,78,30.32,10.0,North,4.6,-,N/A,,Clear,350,2013-12-04 14:53:00
7:53 AM,26.1,21.0,81,30.33,10.0,North,8.1,-,N/A,,Clear,350,2013-12-04 15:53:00
8:53 AM,30.0,21.9,72,30.35,10.0,North,6.9,-,N/A,,Clear,350,2013-12-04 16:53:00
9:53 AM,33.1,23.0,66,30.35,-9999.0,North,6.9,-,N/A,,Unknown,350,2013-12-04 17:53:00
10:53 AM,36.0,17.1,46,30.35,10.0,North,-9999.0,-,N/A,,Clear,0,2013-12-04 18:53:00
11:53 AM,37.0,14.0,39,30.34,10.0,NNE,8.1,-,N/A,,Clear,20,2013-12-04 19:53:00
12:53 PM,37.0,14.0,39,30.32,10.0,NE,5.8,-,N/A,,Clear,50,2013-12-04 20:53:00
1:53 PM,39.0,15.1,38,30.30,10.0,NNE,6.9,-,N/A,,Clear,20,2013-12-04 21:53:00
2:53 PM,37.9,15.1,39,30.30,10.0,NNE,6.9,-,N/A,,Clear,20,2013-12-04 22:53:00
3:53 PM,36.0,14.0,41,30.30,10.0,NNE,6.9,-,N/A,,Clear,30,2013-12-04 23:53:00
4:53 PM,32.0,16.0,52,30.30,10.0,North,4.6,-,N/A,,Clear,360,2013-12-05 00:53:00
5:53 PM,30.0,17.1,59,30.30,10.0,North,4.6,-,N/A,,Clear,360,2013-12-05 01:53:00
6:53 PM,28.0,19.0,69,30.30,10.0,NNW,5.8,-,N/A,,Clear,340,2013-12-05 02:53:00
7:53 PM,28.0,19.0,69,30.31,10.0,North,5.8,-,N/A,,Clear,360,2013-12-05 03:53:00
8:53 PM,27.0,18.0,69,30.32,10.0,Variable,3.5,-,N/A,,Clear,0,2013-12-05 04:53:00
9:53 PM,27.0,18.0,69,30.32,10.0,NNW,6.9,-,N/A,,Clear,340,2013-12-05 05:53:00
10:53 PM,26.1,17.1,69,30.33,10.0,NNW,6.9,-,N/A,,Clear,340,2013-12-05 06:53:00
11:53 PM,26.1,16.0,66,30.32,10.0,NNW,4.6,-,N/A,,Clear,340,2013-12-05 07:53:00